Regional Weather Roundup
Issued by NWS Upton, NY

Current Version | Previous Version | Graphics & Text | Print | Product List | Glossary Off
Versions: 1 2 3 4 5 6 7 8 9 10 11 12 13 14 15 16 17 18 19 20 21 22 23 24 25 26 27 28 29 30 31 32 33 34 35 36 37 38 39 40 41 42 43 44 45 46 47 48 49 50

000
ASUS41 KOKX 010305
RWROKX

REGIONAL WEATHER ROUNDUP
NATIONAL WEATHER SERVICE NEW YORK NY
1100 PM EDT TUE SEP 30 2014

NOTE: "FAIR" INDICATES FEW OR NO CLOUDS BELOW 12,000 FEET WITH NO
SIGNIFICANT WEATHER AND/OR OBSTRUCTIONS TO VISIBILITY.

NYZ071-072-176-178-NJZ106-104-010400-
NEW YORK CITY METRO AREA


CITY           SKY/WX    TMP DP  RH WIND       PRES   REMARKS
CENTRAL PARK   CLOUDY    65  57  75 NE5       30.02R
LAGUARDIA APRT CLOUDY    64  59  83 NE13      29.99R
KENNEDY INTL   CLOUDY    65  58  78 NE9       29.99R
NEWARK/LIBERTY MOCLDY    66  58  75 E3        29.99R
BRNX BOT. GARD   N/A     63  57  82 N5        30.02R
TETERBORO      CLOUDY    64  57  78 N6        29.99R
$$

NYZ177-179-078>081-010400-
LONG ISLAND NEW YORK

CITY           SKY/WX    TMP DP  RH WIND       PRES   REMARKS
FARMINGDALE    CLOUDY    62  59  90 E7        29.99R
ISLIP          CLOUDY    61  57  88 E6        29.97S
SHIRLEY        CLOUDY    61  58  90 CALM      30.00R
WESTHAMPTON    CLOUDY    61  57  87 NE9       30.00S
MONTAUK POINT    N/A     60  57  89 N9        30.00S
$$

NYZ052-065-067-010400-
HUDSON VALLEY

CITY           SKY/WX    TMP DP  RH WIND       PRES   REMARKS
WHITE PLAINS   CLOUDY    60  56  86 NE3       30.00R
NEWBURGH       NOT AVBL
MONTGOMERY     PTCLDY    56  54  93 NE3       30.01R FOG
POUGHKEEPSIE   CLOUDY    59  56  89 CALM      30.01R
ALBANY         MOCLDY    60  55  83 CALM      30.01R
$$

NJZ001-105-106-008-010-013-015-019>022-104-010400-
NEW JERSEY

CITY           SKY/WX    TMP DP  RH WIND       PRES   REMARKS
NEWARK/LIBERTY MOCLDY    66  58  75 E3        29.99R
TETERBORO      CLOUDY    64  57  78 N6        29.99R
CALDWELL       CLOUDY    62  56  80 NE6       30.00R
MORRISTOWN     CLOUDY    63  57  82 CALM      29.99S
SOMERVILLE     MOCLDY    61  57  87 CALM      29.97R
LINDEN         MOCLDY    69  61  75 E7        30.00R
SUSSEX         CLOUDY    63  58  83 CALM      29.99S
ANDOVER          N/A     58  56  93 CALM      30.00R
TRENTON        PTCLDY    61  57  87 NE5       29.97R
MILLVILLE      CLEAR     62  59  90 NE8       29.95R
ATLANTIC CITY  MOCLDY    62  60  93 N7        29.94S
WRIGHTSTOWN    MOCLDY    60  59  99 NE6       29.95R
TOMS RIVER     CLOUDY    63  61  94 NE5       29.97R
BELMAR         CLOUDY    64  55  72 NE7       29.97S
$$

PAZ047>061-062-071-010400-
EASTERN PENNSYLVANIA

CITY           SKY/WX    TMP DP  RH WIND       PRES   REMARKS
PHILADELPHIA   MOCLDY    64  59  83 E9        29.96F
ALLENTOWN      CLOUDY    62  58  86 N3        29.98R
SCRANTON       CLOUDY    63  57  81 NE3       29.98R
$$

CTZ002-004>006-009-010-012-RIZ004-006-007-MAZ004-011-015-010400-
SOUTHERN NEW ENGLAND
 IN CT

CITY           SKY/WX    TMP DP  RH WIND       PRES   REMARKS
BRADLEY INTL   CLOUDY    60  56  86 NE5       30.02S
HARTFORD       CLOUDY    60  55  83 SE7       30.02S
DANBURY        CLOUDY    60  55  83 NE5       30.02R
WTRBRY/OXFORD  CLOUDY    57  54  88 NE6       30.03R
BRIDGEPORT     CLOUDY    62  58  86 NE9       30.00S
MERIDEN        CLOUDY    60  55  83 NE6       30.02R
NEW HAVEN      CLOUDY    62  58  86 NE3       30.00S
CHESTER        LGT RAIN  57  55  94 N6        30.02S
GROTON         CLOUDY    57  56  96 NE8       30.00R
WILLIMANTIC    CLOUDY    58  56  93 N5        30.02S

 IN RI

CITY           SKY/WX    TMP DP  RH WIND       PRES   REMARKS
PROVIDENCE     CLOUDY    57  55  93 N12       30.03R
BLOCK ISLAND   CLOUDY    59  54  82 NE12G21   29.99S
WESTERLY       CLOUDY    58  55  90 N6        30.01R

 IN MA

CITY           SKY/WX    TMP DP  RH WIND       PRES   REMARKS
BOSTON         LGT RAIN  57  55  93 N9        30.03S
WORCESTER      FOG       54  53  97 NE7       30.04S VSB 1
WESTFIELD      CLOUDY    59  56  89 NE3       30.03R
PROVINCETOWN   CLOUDY    61  57  88 NE15      30.01S
NANTUCKET      CLOUDY    63  62  97 N13       29.96S
$$

ANZ330-335-338-340-345-350-353-355-010400-
COASTAL MARINE OBSERVATIONS


STATION/POSITION TIME  SKY/WX   TEMP    WIND        PRES    VSBY  WAVE
                                AIR SEA DIR/SP/G                  HT/PER
                 (UTC)          (F)     (DEG/KT/KT) (MB)    (MI)  (FT/S)
NY HARB ENTRANCE NOT AVBL
4S FIRE IS       0300               68                N/A           4/ 5
20S FIRE ISLAND  0200            63 67   60/ 19/ 21 1013.9          5/ 6
23SW MTP         0300                                 N/A           5/ 5
HUDSON CANYON    0300            68 69   50/ 17/ 19 1012.6          4/ 5
EXECUTION ROCKS  0300            65 68   50/ 14/ 17   N/A
WESTERN LI SOUND 0300            64      60/ 16/ 17   N/A           2/ 3
CENTRAL LI SOUND 0200            61 69   40/ 12/ 16   N/A           1/ 4
EASTERN LI SOUND 0200            60 67   20/ 10/ 12   N/A
ROBBINS REEF     0300            65      80/ 10/ 11 1014.2
$$


>>>>>>>>>>>>>>>>>>>>>>>>>>>> KEY <<<<<<<<<<<<<<<<<<<<<<<<<<<
>                                                          <
>     SKY/WX - SKY CONDITION/PRESENT WEATHER               <
>     TMP    - TEMPERATURE IN FAHRENHEIT                   <
>     DP     - DEWPOINT IN FAHRENHEIT                      <
>     RH     - RELATIVE HUMIDITY IN PERCENT                <
>     WIND   - DIRECTION AND SPEED IN MPH                  <
>     PRES   - MEAN SEA LEVEL PRESSURE IN INCHES OF HG     <
>     WCI    - WIND CHILL INDEX                            <
>     VSB    - VISIBILITY IN MILES                         <
>     HX     - HEAT INDEX                                  <
>     TC     - TEMPERATURE IN CELSIUS                      <
>     VRB    - VARIABLE WIND DIRECTION                     <
>                                                          <
>>>>>>>>>>>>>>>>>>>>>>>>>>>> KEY <<<<<<<<<<<<<<<<<<<<<<<<<<<





USA.gov is the U.S. government's official web portal to all federal, state and local government web resources and services.